ATLAS 5 CENTAUR DEB, 44668

Orbit data source: Space-Track

ATLAS 5 CENTAUR DEB, 44668 is space debris in HEO originally from a launch on Wed, 17 Oct 2018 UTC launched from the Air Force Eastern Test Range (AFETR). Debris objects in space refer to the collection of defunct objects orbiting the Earth. Examples of debris include non-operational satellites, rocket bodies, and fragments generated from explosions, collisions, or faulty payload assembly.

Loading next visibility...
Identifier
44668, 2018-079AE
Orbit
HEO
Country
Flag of USUS
Related business
Flag of USUnited Launch Alliance/Lockheed Martin (US)
Manufacturer
ULA Decatur
Mission
Spacecraft
Bus & Motor
Unknown
Mass
Unknown
Launch date (UTC)
2018-10-17 (7 years ago)
Launch vehicle
Unknown
Launch site
Air Force Eastern Test Range (AFETR)
Object type
Payload
Rocket body
Debris
Shape & HBR
Unknown shape, 1.1 m
Radar Cross Section
RCS unknown

Expand to show TLE details & history
Last TLE update: 3 days ago

TLE from 3 days ago
0 ATLAS 5 CENTAUR DEB
1 44668U 18079AE  25350.09027486 -.00000070  00000-0  00000-0 0  9992
2 44668  13.3426  16.6197 4548874 356.5392   1.2616  1.97449751 47219
Epoch: 2025-12-16T02:09Z
TLE epoch observation values (Epoch: 2025-12-16T02:09:59.747Z)
Latitude
0.00007°
Longitude
-100.86988°
Altitude
8,278.148 km
Speed
6.288 km/s
True Right ascension
01h 06m 26s
True Declination
0° 00' 00"
Sunlit
Object was in daylight at epoch
Visualization orbit readout
Latitude
Unknown
Longitude
Unknown
Altitude
Unknown
Speed
Unknown
Apparent Right ascension
Unknown
Apparent Declination
Unknown
Sunlit
N/A
Visualization observer readout
Local Sidereal Time
07:50:02
Azimuth
Unknown
Elevation
Unknown
Doppler factor
Unknown
Orbital elements
Apogee altitude
32,672.521 km
Perigee altitude
8,253.24 km
Semi-major axis
26,841.017 km
Eccentricity
0.45489
Inclination
13.3426°
RAAN
16.6197°
Arg. of periapsis
356.5392°
True anomaly
3.77929°
Mean anomaly
1.2616°
Eccentric anomaly
2.31386°
Mean motion
0.49357 °/min
Orbital period
729.39 mins
BSTAR
0
Loading maneuver chart data...
Computing Atmospheric mass density...

Documentation

Showing up to 5 results
|